Москва (Юго-Восток)

Россия / Московская область     55°34′58″N   37°49′58″E
В апреле 2022 года жителям России запретили посещать сайт meteo.paraplan.net по решению Генеральной прокуратуры. Аудитория сайта уменьшилась в 10 раз. Владельцы сайта не видят смысла в поддержке погодного сервера в таких условиях. Сайт будет закрыт в октябре.
темп.,
°C
ветер,
м/с
пор.,
м/с
влажн.,
%
обл.,
%
осадки,
мм/ч
давл.,
гПа
погр.,
м
4 октября, вт
вт400:00+10ююв9168061 0.1 10031120
03:00+10ююв101675100 0.1 10041312
06:00+9ююв91679100 0.0 10051259
09:00+10ююв91677100 0.0 10061104
12:00+11ююв91672100 0.1 10061663
15:00+7ю61386100 1.3 10091153
18:00+8ю51083100 0.3 1009557
21:00+7ю81283100 0.4 1009775
5 октября, ср
ср500:00+6ю61091100 0.1 1009984
03:00+7ююз4889100 0.8 10091060
06:00+7ююз5888100 0.4 1010815
09:00+6ююз4691100 0.6 10111007
12:00+6з4687100 0.4 1013549
15:00+7з5675100 0.5 1014872
18:00+6з4883100 0.0 1015590
21:00+6з4786100 0.1 1016585
6 октября, чт
чт600:00+5з369286 0.1 1016274
03:00+4з369734 0.1 1017148
06:00+3з35976 0.0 101899
09:00+6з34845 0.0 1018223
12:00+10з347146 0.0 1018678
15:00+11зюз457797 0.0 1018721
18:00+9ююз379245 0.0 1018274
21:00+9юз4109548 0.0 1017263
7 октября, пт
пт700:00+9юз51196100 0.0 1016298
03:00+9зюз5129619 0.0 1016331
06:00+11зсз6129139 0.0 1017560
09:00+11зсз6128118 0.0 1019719
12:00+11зсз61075100 0.1 10221104
15:00+12зсз5968100 0.1 10221110
18:00+9з49810 0.0 1023239
21:00+7зюз49910 0.0 1025198
8 октября, сб
сб800:00+6зюз48940 0.0 1025163
03:00+6зюз37950 0.0 1025132
06:00+5юз47955 0.0 1025139
09:00+8юз59865 0.0 1025306
12:00+13юз57695 0.0 1023712
15:00+14юз686027 0.0 1021993
18:00+10ююз498242 0.0 1020162
21:00+9ююз51387100 0.0 1019330